Year,Month,Day,Hour,Minute,Value (Times are PST for insolation in W/m^2)
2014,02,16,00,00,0.00
2014,02,16,00,01,0.00
2014,02,16,00,02,0.00
2014,02,16,00,03,0.00
2014,02,16,00,04,0.00
2014,02,16,00,05,0.00
2014,02,16,00,06,0.00
2014,02,16,00,07,0.00
2014,02,16,00,08,0.00
2014,02,16,00,09,0.00
2014,02,16,00,10,0.00
2014,02,16,00,11,0.00
2014,02,16,00,12,0.00
2014,02,16,00,13,0.00
2014,02,16,00,14,0.00
2014,02,16,00,15,0.00
2014,02,16,00,16,0.00
2014,02,16,00,17,0.00
2014,02,16,00,18,0.00
2014,02,16,00,19,0.00
2014,02,16,00,20,0.00
2014,02,16,00,21,0.00
2014,02,16,00,22,0.00
2014,02,16,00,23,0.00
2014,02,16,00,24,0.00
2014,02,16,00,25,0.00
2014,02,16,00,26,0.00
2014,02,16,00,27,0.00
2014,02,16,00,28,0.00
2014,02,16,00,29,0.00
2014,02,16,00,30,0.00
2014,02,16,00,31,0.00
2014,02,16,00,32,0.00
2014,02,16,00,33,0.00
2014,02,16,00,34,0.00
2014,02,16,00,35,0.00
2014,02,16,00,36,0.00
2014,02,16,00,37,0.00
2014,02,16,00,38,0.00
2014,02,16,00,39,0.00
2014,02,16,00,40,0.00
2014,02,16,00,41,0.00
2014,02,16,00,42,0.00
2014,02,16,00,43,0.00
2014,02,16,00,44,0.00
2014,02,16,00,45,0.00
2014,02,16,00,46,0.00
2014,02,16,00,47,0.00
2014,02,16,00,48,0.00
2014,02,16,00,49,0.00
2014,02,16,00,50,0.00
2014,02,16,00,51,0.00
2014,02,16,00,52,0.00
2014,02,16,00,53,0.00
2014,02,16,00,54,0.00
2014,02,16,00,55,0.00
2014,02,16,00,56,0.00
2014,02,16,00,57,0.00
2014,02,16,00,58,0.00
2014,02,16,00,59,0.00
2014,02,16,01,00,0.00
2014,02,16,01,01,0.00
2014,02,16,01,02,0.00
2014,02,16,01,03,0.00
2014,02,16,01,04,0.00
2014,02,16,01,05,0.00
2014,02,16,01,06,0.00
2014,02,16,01,07,0.00
2014,02,16,01,08,0.00
2014,02,16,01,09,0.00
2014,02,16,01,10,0.00
2014,02,16,01,11,0.00
2014,02,16,01,12,0.00
2014,02,16,01,13,0.00
2014,02,16,01,14,0.00
2014,02,16,01,15,0.00
2014,02,16,01,16,0.00
2014,02,16,01,17,0.00
2014,02,16,01,18,0.00
2014,02,16,01,19,0.00
2014,02,16,01,20,0.00
2014,02,16,01,21,0.00
2014,02,16,01,22,0.00
2014,02,16,01,23,0.00
2014,02,16,01,24,0.00
2014,02,16,01,25,0.00
2014,02,16,01,26,0.00
2014,02,16,01,27,0.00
2014,02,16,01,28,0.00
2014,02,16,01,29,0.00
2014,02,16,01,30,0.00
2014,02,16,01,31,0.00
2014,02,16,01,32,0.00
2014,02,16,01,33,0.00
2014,02,16,01,34,0.00
2014,02,16,01,35,0.00
2014,02,16,01,36,0.00
2014,02,16,01,37,0.00
2014,02,16,01,38,0.00
2014,02,16,01,39,0.00
2014,02,16,01,40,0.00
2014,02,16,01,41,0.00
2014,02,16,01,42,0.00
2014,02,16,01,43,0.00
2014,02,16,01,44,0.00
2014,02,16,01,45,0.00
2014,02,16,01,46,0.00
2014,02,16,01,47,0.00
2014,02,16,01,48,0.00
2014,02,16,01,49,0.00
2014,02,16,01,50,0.00
2014,02,16,01,51,0.00
2014,02,16,01,52,0.00
2014,02,16,01,53,0.00
2014,02,16,01,54,0.00
2014,02,16,01,55,0.00
2014,02,16,01,56,0.00
2014,02,16,01,57,0.00
2014,02,16,01,58,0.00
2014,02,16,01,59,0.00
2014,02,16,02,00,0.00
2014,02,16,02,01,0.00
2014,02,16,02,02,0.00
2014,02,16,02,03,0.00
2014,02,16,02,04,0.00
2014,02,16,02,05,0.00
2014,02,16,02,06,0.00
2014,02,16,02,07,0.00
2014,02,16,02,08,0.00
2014,02,16,02,09,0.00
2014,02,16,02,10,0.00
2014,02,16,02,11,0.00
2014,02,16,02,12,0.00
2014,02,16,02,13,0.00
2014,02,16,02,14,0.00
2014,02,16,02,15,0.00
2014,02,16,02,16,0.00
2014,02,16,02,17,0.00
2014,02,16,02,18,0.00
2014,02,16,02,19,0.00
2014,02,16,02,20,0.00
2014,02,16,02,21,0.00
2014,02,16,02,22,0.00
2014,02,16,02,23,0.00
2014,02,16,02,24,0.00
2014,02,16,02,25,0.00
2014,02,16,02,26,0.00
2014,02,16,02,27,0.00
2014,02,16,02,28,0.00
2014,02,16,02,29,0.00
2014,02,16,02,30,0.00
2014,02,16,02,31,0.00
2014,02,16,02,32,0.00
2014,02,16,02,33,0.00
2014,02,16,02,34,0.00
2014,02,16,02,35,0.00
2014,02,16,02,36,0.00
2014,02,16,02,37,0.00
2014,02,16,02,38,0.00
2014,02,16,02,39,0.00
2014,02,16,02,40,0.00
2014,02,16,02,41,0.00
2014,02,16,02,42,0.00
2014,02,16,02,43,0.00
2014,02,16,02,44,0.00
2014,02,16,02,45,0.00
2014,02,16,02,46,0.00
2014,02,16,02,47,0.00
2014,02,16,02,48,0.00
2014,02,16,02,49,0.00
2014,02,16,02,50,0.00
2014,02,16,02,51,0.00
2014,02,16,02,52,0.00
2014,02,16,02,53,0.00
2014,02,16,02,54,0.00
2014,02,16,02,55,0.00
2014,02,16,02,56,0.00
2014,02,16,02,57,0.00
2014,02,16,02,58,0.00
2014,02,16,02,59,0.00
2014,02,16,03,00,0.00
2014,02,16,03,01,0.00
2014,02,16,03,02,0.00
2014,02,16,03,03,0.00
2014,02,16,03,04,0.00
2014,02,16,03,05,0.00
2014,02,16,03,06,0.00
2014,02,16,03,07,0.00
2014,02,16,03,08,0.00
2014,02,16,03,09,0.00
2014,02,16,03,10,0.00
2014,02,16,03,11,0.00
2014,02,16,03,12,0.00
2014,02,16,03,13,0.00
2014,02,16,03,14,0.00
2014,02,16,03,15,0.00
2014,02,16,03,16,0.00
2014,02,16,03,17,0.00
2014,02,16,03,18,0.00
2014,02,16,03,19,0.00
2014,02,16,03,20,0.00
2014,02,16,03,21,0.00
2014,02,16,03,22,0.00
2014,02,16,03,23,0.00
2014,02,16,03,24,0.00
2014,02,16,03,25,0.00
2014,02,16,03,26,0.00
2014,02,16,03,27,0.00
2014,02,16,03,28,0.00
2014,02,16,03,29,0.00
2014,02,16,03,30,0.00
2014,02,16,03,31,0.00
2014,02,16,03,32,0.00
2014,02,16,03,33,0.00
2014,02,16,03,34,0.00
2014,02,16,03,35,0.00
2014,02,16,03,36,0.00
2014,02,16,03,37,0.00
2014,02,16,03,38,0.00
2014,02,16,03,39,0.00
2014,02,16,03,40,0.00
2014,02,16,03,41,0.00
2014,02,16,03,42,0.00
2014,02,16,03,43,0.00
2014,02,16,03,44,0.00
2014,02,16,03,45,0.00
2014,02,16,03,46,0.00
2014,02,16,03,47,0.00
2014,02,16,03,48,0.00
2014,02,16,03,49,0.00
2014,02,16,03,50,0.00
2014,02,16,03,51,0.00
2014,02,16,03,52,0.00
2014,02,16,03,53,0.00
2014,02,16,03,54,0.00
2014,02,16,03,55,0.00
2014,02,16,03,56,0.00
2014,02,16,03,57,0.00
2014,02,16,03,58,0.00
2014,02,16,03,59,0.00
2014,02,16,04,00,0.00
2014,02,16,04,01,0.00
2014,02,16,04,02,0.00
2014,02,16,04,03,0.00
2014,02,16,04,04,0.00
2014,02,16,04,05,0.00
2014,02,16,04,06,0.00
2014,02,16,04,07,0.00
2014,02,16,04,08,0.00
2014,02,16,04,09,0.00
2014,02,16,04,10,0.00
2014,02,16,04,11,0.00
2014,02,16,04,12,0.00
2014,02,16,04,13,0.00
2014,02,16,04,14,0.00
2014,02,16,04,15,0.00
2014,02,16,04,16,0.00
2014,02,16,04,17,0.00
2014,02,16,04,18,0.00
2014,02,16,04,19,0.00
2014,02,16,04,20,0.00
2014,02,16,04,21,0.00
2014,02,16,04,22,0.00
2014,02,16,04,23,0.00
2014,02,16,04,24,0.00
2014,02,16,04,25,0.00
2014,02,16,04,26,0.00
2014,02,16,04,27,0.00
2014,02,16,04,28,0.00
2014,02,16,04,29,0.00
2014,02,16,04,30,0.00
2014,02,16,04,31,0.00
2014,02,16,04,32,0.00
2014,02,16,04,33,0.00
2014,02,16,04,34,0.00
2014,02,16,04,35,0.00
2014,02,16,04,36,0.00
2014,02,16,04,37,0.00
2014,02,16,04,38,0.00
2014,02,16,04,39,0.00
2014,02,16,04,40,0.00
2014,02,16,04,41,0.00
2014,02,16,04,42,0.00
2014,02,16,04,43,0.00
2014,02,16,04,44,0.00
2014,02,16,04,45,0.00
2014,02,16,04,46,0.00
2014,02,16,04,47,0.00
2014,02,16,04,48,0.00
2014,02,16,04,49,0.00
2014,02,16,04,50,0.00
2014,02,16,04,51,0.00
2014,02,16,04,52,0.00
2014,02,16,04,53,0.00
2014,02,16,04,54,0.00
2014,02,16,04,55,0.00
2014,02,16,04,56,0.00
2014,02,16,04,57,0.00
2014,02,16,04,58,0.00
2014,02,16,04,59,0.00
2014,02,16,05,00,0.00
2014,02,16,05,01,0.00
2014,02,16,05,02,0.00
2014,02,16,05,03,0.00
2014,02,16,05,04,0.00
2014,02,16,05,05,0.00
2014,02,16,05,06,0.00
2014,02,16,05,07,0.00
2014,02,16,05,08,0.00
2014,02,16,05,09,0.00
2014,02,16,05,10,0.00
2014,02,16,05,11,0.00
2014,02,16,05,12,0.00
2014,02,16,05,13,0.00
2014,02,16,05,14,0.00
2014,02,16,05,15,0.00
2014,02,16,05,16,0.00
2014,02,16,05,17,0.00
2014,02,16,05,18,0.00
2014,02,16,05,19,0.00
2014,02,16,05,20,0.00
2014,02,16,05,21,0.00
2014,02,16,05,22,0.00
2014,02,16,05,23,0.00
2014,02,16,05,24,0.00
2014,02,16,05,25,0.00
2014,02,16,05,26,0.00
2014,02,16,05,27,0.00
2014,02,16,05,28,0.00
2014,02,16,05,29,0.00
2014,02,16,05,30,0.00
2014,02,16,05,31,0.00
2014,02,16,05,32,0.00
2014,02,16,05,33,0.00
2014,02,16,05,34,0.00
2014,02,16,05,35,0.00
2014,02,16,05,36,0.00
2014,02,16,05,37,0.00
2014,02,16,05,38,0.00
2014,02,16,05,39,0.00
2014,02,16,05,40,0.00
2014,02,16,05,41,0.00
2014,02,16,05,42,0.00
2014,02,16,05,43,0.00
2014,02,16,05,44,0.00
2014,02,16,05,45,0.00
2014,02,16,05,46,0.00
2014,02,16,05,47,0.00
2014,02,16,05,48,0.00
2014,02,16,05,49,0.00
2014,02,16,05,50,0.00
2014,02,16,05,51,0.00
2014,02,16,05,52,0.00
2014,02,16,05,53,0.00
2014,02,16,05,54,0.00
2014,02,16,05,55,0.00
2014,02,16,05,56,0.00
2014,02,16,05,57,0.00
2014,02,16,05,58,0.00
2014,02,16,05,59,0.00
2014,02,16,06,00,0.00
2014,02,16,06,01,0.00
2014,02,16,06,02,0.00
2014,02,16,06,03,0.00
2014,02,16,06,04,0.00
2014,02,16,06,05,0.00
2014,02,16,06,06,0.00
2014,02,16,06,07,0.00
2014,02,16,06,08,0.00
2014,02,16,06,09,0.00
2014,02,16,06,10,0.00
2014,02,16,06,11,0.00
2014,02,16,06,12,0.00
2014,02,16,06,13,0.00
2014,02,16,06,14,0.00
2014,02,16,06,15,0.00
2014,02,16,06,16,0.00
2014,02,16,06,17,0.00
2014,02,16,06,18,0.00
2014,02,16,06,19,0.00
2014,02,16,06,20,0.00
2014,02,16,06,21,0.00
2014,02,16,06,22,0.00
2014,02,16,06,23,0.00
2014,02,16,06,24,0.00
2014,02,16,06,25,0.00
2014,02,16,06,26,0.00
2014,02,16,06,27,0.00
2014,02,16,06,28,0.00
2014,02,16,06,29,0.00
2014,02,16,06,30,0.00
2014,02,16,06,31,0.00
2014,02,16,06,32,0.00
2014,02,16,06,33,0.00
2014,02,16,06,34,0.00
2014,02,16,06,35,0.00
2014,02,16,06,36,0.00
2014,02,16,06,37,0.00
2014,02,16,06,38,0.00
2014,02,16,06,39,0.00
2014,02,16,06,40,0.00
2014,02,16,06,41,0.00
2014,02,16,06,42,0.00
2014,02,16,06,43,0.00
2014,02,16,06,44,0.00
2014,02,16,06,45,0.00
2014,02,16,06,46,0.00
2014,02,16,06,47,0.00
2014,02,16,06,48,0.00
2014,02,16,06,49,0.00
2014,02,16,06,50,0.00
2014,02,16,06,51,0.00
2014,02,16,06,52,0.00
2014,02,16,06,53,0.00
2014,02,16,06,54,0.00
2014,02,16,06,55,0.00
2014,02,16,06,56,0.00
2014,02,16,06,57,0.00
2014,02,16,06,58,0.00
2014,02,16,06,59,0.00
2014,02,16,07,00,0.00
2014,02,16,07,01,0.00
2014,02,16,07,02,0.00
2014,02,16,07,03,0.00
2014,02,16,07,04,0.00
2014,02,16,07,05,0.00
2014,02,16,07,06,0.00
2014,02,16,07,07,0.00
2014,02,16,07,08,0.00
2014,02,16,07,09,0.00
2014,02,16,07,10,0.00
2014,02,16,07,11,0.00
2014,02,16,07,12,0.00
2014,02,16,07,13,0.00
2014,02,16,07,14,0.00
2014,02,16,07,15,0.00
2014,02,16,07,16,0.00
2014,02,16,07,17,0.00
2014,02,16,07,18,0.00
2014,02,16,07,19,0.00
2014,02,16,07,20,0.00
2014,02,16,07,21,0.00
2014,02,16,07,22,0.00
2014,02,16,07,23,0.00
2014,02,16,07,24,0.00
2014,02,16,07,25,0.00
2014,02,16,07,26,0.00
2014,02,16,07,27,0.00
2014,02,16,07,28,0.00
2014,02,16,07,29,0.00
2014,02,16,07,30,0.00
2014,02,16,07,31,0.00
2014,02,16,07,32,0.00
2014,02,16,07,33,4.00
2014,02,16,07,34,5.00
2014,02,16,07,35,5.00
2014,02,16,07,36,5.00
2014,02,16,07,37,5.20
2014,02,16,07,38,7.40
2014,02,16,07,39,9.50
2014,02,16,07,40,11.00
2014,02,16,07,41,11.30
2014,02,16,07,42,12.00
2014,02,16,07,43,13.00
2014,02,16,07,44,15.10
2014,02,16,07,45,17.20
2014,02,16,07,46,18.70
2014,02,16,07,47,19.00
2014,02,16,07,48,18.20
2014,02,16,07,49,18.00
2014,02,16,07,50,18.00
2014,02,16,07,51,18.00
2014,02,16,07,52,18.10
2014,02,16,07,53,19.00
2014,02,16,07,54,19.00
2014,02,16,07,55,19.00
2014,02,16,07,56,19.00
2014,02,16,07,57,19.00
2014,02,16,07,58,19.00
2014,02,16,07,59,20.10
2014,02,16,08,00,21.00
2014,02,16,08,01,21.00
2014,02,16,08,02,21.00
2014,02,16,08,03,22.60
2014,02,16,08,04,23.00
2014,02,16,08,05,21.20
2014,02,16,08,06,20.90
2014,02,16,08,07,19.00
2014,02,16,08,08,19.00
2014,02,16,08,09,19.00
2014,02,16,08,10,19.60
2014,02,16,08,11,21.00
2014,02,16,08,12,21.00
2014,02,16,08,13,22.00
2014,02,16,08,14,23.00
2014,02,16,08,15,23.00
2014,02,16,08,16,23.00
2014,02,16,08,17,23.00
2014,02,16,08,18,23.00
2014,02,16,08,19,23.00
2014,02,16,08,20,23.00
2014,02,16,08,21,23.00
2014,02,16,08,22,23.20
2014,02,16,08,23,25.20
2014,02,16,08,24,26.50
2014,02,16,08,25,28.60
2014,02,16,08,26,30.70
2014,02,16,08,27,31.10
2014,02,16,08,28,28.10
2014,02,16,08,29,24.40
2014,02,16,08,30,21.80
2014,02,16,08,31,21.00
2014,02,16,08,32,23.90
2014,02,16,08,33,27.40
2014,02,16,08,34,34.00
2014,02,16,08,35,39.50
2014,02,16,08,36,46.10
2014,02,16,08,37,49.20
2014,02,16,08,38,51.40
2014,02,16,08,39,53.70
2014,02,16,08,40,57.70
2014,02,16,08,41,62.40
2014,02,16,08,42,63.90
2014,02,16,08,43,65.00
2014,02,16,08,44,66.10
2014,02,16,08,45,68.90
2014,02,16,08,46,74.00
2014,02,16,08,47,78.20
2014,02,16,08,48,80.60
2014,02,16,08,49,82.70
2014,02,16,08,50,83.90
2014,02,16,08,51,84.10
2014,02,16,08,52,86.40
2014,02,16,08,53,90.40
2014,02,16,08,54,93.50
2014,02,16,08,55,97.00
2014,02,16,08,56,99.50
2014,02,16,08,57,95.00
2014,02,16,08,58,96.00
2014,02,16,08,59,99.70
2014,02,16,09,00,98.90
2014,02,16,09,01,97.00
2014,02,16,09,02,113.40
2014,02,16,09,03,188.80
2014,02,16,09,04,209.00
2014,02,16,09,05,210.70
2014,02,16,09,06,148.00
2014,02,16,09,07,146.80
2014,02,16,09,08,130.30
2014,02,16,09,09,106.90
2014,02,16,09,10,100.60
2014,02,16,09,11,107.10
2014,02,16,09,12,121.10
2014,02,16,09,13,124.70
2014,02,16,09,14,117.20
2014,02,16,09,15,106.60
2014,02,16,09,16,96.00
2014,02,16,09,17,93.00
2014,02,16,09,18,91.40
2014,02,16,09,19,88.40
2014,02,16,09,20,83.50
2014,02,16,09,21,85.80
2014,02,16,09,22,83.90
2014,02,16,09,23,84.30
2014,02,16,09,24,92.40
2014,02,16,09,25,102.60
2014,02,16,09,26,112.70
2014,02,16,09,27,123.30
2014,02,16,09,28,129.90
2014,02,16,09,29,130.90
2014,02,16,09,30,130.00
2014,02,16,09,31,128.00
2014,02,16,09,32,121.90
2014,02,16,09,33,111.10
2014,02,16,09,34,107.30
2014,02,16,09,35,112.50
2014,02,16,09,36,120.90
2014,02,16,09,37,117.00
2014,02,16,09,38,105.20
2014,02,16,09,39,94.40
2014,02,16,09,40,83.10
2014,02,16,09,41,70.90
2014,02,16,09,42,55.60
2014,02,16,09,43,43.20
2014,02,16,09,44,35.70
2014,02,16,09,45,31.10
2014,02,16,09,46,27.30
2014,02,16,09,47,23.80
2014,02,16,09,48,21.40
2014,02,16,09,49,21.00
2014,02,16,09,50,21.00
2014,02,16,09,51,25.60
2014,02,16,09,52,37.90
2014,02,16,09,53,46.90
2014,02,16,09,54,52.20
2014,02,16,09,55,58.00
2014,02,16,09,56,63.00
2014,02,16,09,57,60.90
2014,02,16,09,58,57.00
2014,02,16,09,59,57.10
2014,02,16,10,00,60.50
2014,02,16,10,01,64.00
2014,02,16,10,02,63.50
2014,02,16,10,03,62.20
2014,02,16,10,04,70.60
2014,02,16,10,05,82.00
2014,02,16,10,06,78.50
2014,02,16,10,07,68.00
2014,02,16,10,08,57.10
2014,02,16,10,09,51.60
2014,02,16,10,10,46.10
2014,02,16,10,11,44.00
2014,02,16,10,12,44.90
2014,02,16,10,13,46.00
2014,02,16,10,14,46.50
2014,02,16,10,15,47.00
2014,02,16,10,16,47.00
2014,02,16,10,17,44.80
2014,02,16,10,18,42.40
2014,02,16,10,19,40.30
2014,02,16,10,20,41.80
2014,02,16,10,21,44.00
2014,02,16,10,22,43.60
2014,02,16,10,23,40.00
2014,02,16,10,24,41.00
2014,02,16,10,25,44.00
2014,02,16,10,26,45.10
2014,02,16,10,27,47.90
2014,02,16,10,28,48.00
2014,02,16,10,29,47.00
2014,02,16,10,30,49.50
2014,02,16,10,31,49.70
2014,02,16,10,32,43.90
2014,02,16,10,33,34.70
2014,02,16,10,34,32.10
2014,02,16,10,35,32.90
2014,02,16,10,36,34.90
2014,02,16,10,37,32.70
2014,02,16,10,38,30.00
2014,02,16,10,39,31.70
2014,02,16,10,40,39.20
2014,02,16,10,41,45.90
2014,02,16,10,42,50.70
2014,02,16,10,43,53.00
2014,02,16,10,44,50.80
2014,02,16,10,45,45.90
2014,02,16,10,46,42.60
2014,02,16,10,47,45.00
2014,02,16,10,48,44.40
2014,02,16,10,49,45.70
2014,02,16,10,50,46.00
2014,02,16,10,51,38.80
2014,02,16,10,52,35.20
2014,02,16,10,53,36.60
2014,02,16,10,54,35.50
2014,02,16,10,55,37.60
2014,02,16,10,56,42.80
2014,02,16,10,57,52.90
2014,02,16,10,58,58.00
2014,02,16,10,59,55.70
2014,02,16,11,00,54.00
2014,02,16,11,01,48.70
2014,02,16,11,02,39.50
2014,02,16,11,03,38.60
2014,02,16,11,04,39.00
2014,02,16,11,05,41.70
2014,02,16,11,06,41.80
2014,02,16,11,07,36.70
2014,02,16,11,08,35.00
2014,02,16,11,09,37.60
2014,02,16,11,10,46.90
2014,02,16,11,11,52.30
2014,02,16,11,12,58.90
2014,02,16,11,13,61.00
2014,02,16,11,14,59.80
2014,02,16,11,15,56.80
2014,02,16,11,16,54.00
2014,02,16,11,17,47.70
2014,02,16,11,18,42.80
2014,02,16,11,19,39.40
2014,02,16,11,20,35.40
2014,02,16,11,21,31.70
2014,02,16,11,22,26.00
2014,02,16,11,23,25.40
2014,02,16,11,24,22.50
2014,02,16,11,25,21.60
2014,02,16,11,26,23.70
2014,02,16,11,27,25.40
2014,02,16,11,28,25.50
2014,02,16,11,29,25.00
2014,02,16,11,30,25.60
2014,02,16,11,31,27.30
2014,02,16,11,32,29.40
2014,02,16,11,33,30.00
2014,02,16,11,34,30.00
2014,02,16,11,35,30.00
2014,02,16,11,36,25.00
2014,02,16,11,37,26.90
2014,02,16,11,38,34.50
2014,02,16,11,39,32.70
2014,02,16,11,40,35.00
2014,02,16,11,41,35.00
2014,02,16,11,42,32.90
2014,02,16,11,43,30.00
2014,02,16,11,44,31.10
2014,02,16,11,45,30.80
2014,02,16,11,46,28.70
2014,02,16,11,47,29.50
2014,02,16,11,48,31.60
2014,02,16,11,49,32.90
2014,02,16,11,50,33.00
2014,02,16,11,51,32.00
2014,02,16,11,52,31.80
2014,02,16,11,53,29.30
2014,02,16,11,54,25.80
2014,02,16,11,55,24.40
2014,02,16,11,56,23.00
2014,02,16,11,57,22.10
2014,02,16,11,58,21.00
2014,02,16,11,59,21.00
2014,02,16,12,00,21.00
2014,02,16,12,01,21.00
2014,02,16,12,02,24.80
2014,02,16,12,03,26.00
2014,02,16,12,04,25.10
2014,02,16,12,05,21.40
2014,02,16,12,06,19.00
2014,02,16,12,07,19.00
2014,02,16,12,08,19.00
2014,02,16,12,09,18.80
2014,02,16,12,10,17.40
2014,02,16,12,11,16.00
2014,02,16,12,12,16.00
2014,02,16,12,13,16.00
2014,02,16,12,14,17.60
2014,02,16,12,15,19.00
2014,02,16,12,16,18.30
2014,02,16,12,17,18.80
2014,02,16,12,18,20.60
2014,02,16,12,19,22.70
2014,02,16,12,20,18.50
2014,02,16,12,21,19.00
2014,02,16,12,22,18.00
2014,02,16,12,23,18.00
2014,02,16,12,24,17.00
2014,02,16,12,25,14.00
2014,02,16,12,26,14.00
2014,02,16,12,27,14.00
2014,02,16,12,28,13.00
2014,02,16,12,29,11.40
2014,02,16,12,30,11.00
2014,02,16,12,31,11.00
2014,02,16,12,32,11.70
2014,02,16,12,33,12.00
2014,02,16,12,34,12.00
2014,02,16,12,35,12.00
2014,02,16,12,36,12.00
2014,02,16,12,37,12.00
2014,02,16,12,38,11.80
2014,02,16,12,39,11.00
2014,02,16,12,40,10.40
2014,02,16,12,41,9.00
2014,02,16,12,42,9.00
2014,02,16,12,43,9.00
2014,02,16,12,44,9.00
2014,02,16,12,45,9.00
2014,02,16,12,46,9.00
2014,02,16,12,47,9.00
2014,02,16,12,48,9.00
2014,02,16,12,49,9.00
2014,02,16,12,50,9.00
2014,02,16,12,51,9.10
2014,02,16,12,52,11.00
2014,02,16,12,53,11.20
2014,02,16,12,54,12.00
2014,02,16,12,55,12.00
2014,02,16,12,56,12.00
2014,02,16,12,57,12.00
2014,02,16,12,58,11.50
2014,02,16,12,59,11.00
2014,02,16,13,00,11.00
2014,02,16,13,01,11.70
2014,02,16,13,02,12.00
2014,02,16,13,03,13.60
2014,02,16,13,04,11.40
2014,02,16,13,05,11.00
2014,02,16,13,06,10.90
2014,02,16,13,07,9.00
2014,02,16,13,08,9.00
2014,02,16,13,09,9.00
2014,02,16,13,10,9.60
2014,02,16,13,11,11.00
2014,02,16,13,12,11.00
2014,02,16,13,13,11.00
2014,02,16,13,14,11.00
2014,02,16,13,15,11.00
2014,02,16,13,16,11.00
2014,02,16,13,17,11.80
2014,02,16,13,18,12.00
2014,02,16,13,19,12.00
2014,02,16,13,20,11.10
2014,02,16,13,21,11.00
2014,02,16,13,22,11.10
2014,02,16,13,23,12.00
2014,02,16,13,24,12.50
2014,02,16,13,25,14.00
2014,02,16,13,26,14.00
2014,02,16,13,27,14.00
2014,02,16,13,28,13.00
2014,02,16,13,29,12.00
2014,02,16,13,30,12.00
2014,02,16,13,31,13.40
2014,02,16,13,32,15.50
2014,02,16,13,33,16.00
2014,02,16,13,34,14.30
2014,02,16,13,35,14.00
2014,02,16,13,36,13.90
2014,02,16,13,37,12.20
2014,02,16,13,38,14.00
2014,02,16,13,39,14.00
2014,02,16,13,40,14.00
2014,02,16,13,41,14.00
2014,02,16,13,42,14.00
2014,02,16,13,43,15.90
2014,02,16,13,44,18.00
2014,02,16,13,45,18.60
2014,02,16,13,46,23.80
2014,02,16,13,47,27.50
2014,02,16,13,48,28.00
2014,02,16,13,49,26.30
2014,02,16,13,50,25.10
2014,02,16,13,51,24.80
2014,02,16,13,52,20.60
2014,02,16,13,53,18.20
2014,02,16,13,54,19.00
2014,02,16,13,55,18.70
2014,02,16,13,56,18.00
2014,02,16,13,57,19.30
2014,02,16,13,58,20.00
2014,02,16,13,59,19.00
2014,02,16,14,00,20.20
2014,02,16,14,01,23.70
2014,02,16,14,02,25.00
2014,02,16,14,03,23.40
2014,02,16,14,04,21.30
2014,02,16,14,05,18.10
2014,02,16,14,06,14.00
2014,02,16,14,07,14.00
2014,02,16,14,08,13.60
2014,02,16,14,09,12.00
2014,02,16,14,10,12.60
2014,02,16,14,11,14.80
2014,02,16,14,12,16.00
2014,02,16,14,13,16.00
2014,02,16,14,14,17.10
2014,02,16,14,15,18.00
2014,02,16,14,16,18.70
2014,02,16,14,17,20.50
2014,02,16,14,18,22.60
2014,02,16,14,19,25.60
2014,02,16,14,20,26.00
2014,02,16,14,21,26.20
2014,02,16,14,22,31.40
2014,02,16,14,23,41.10
2014,02,16,14,24,47.40
2014,02,16,14,25,56.70
2014,02,16,14,26,79.80
2014,02,16,14,27,94.40
2014,02,16,14,28,87.50
2014,02,16,14,29,78.30
2014,02,16,14,30,70.90
2014,02,16,14,31,55.40
2014,02,16,14,32,38.30
2014,02,16,14,33,27.70
2014,02,16,14,34,26.00
2014,02,16,14,35,32.70
2014,02,16,14,36,40.20
2014,02,16,14,37,43.70
2014,02,16,14,38,41.40
2014,02,16,14,39,37.30
2014,02,16,14,40,30.10
2014,02,16,14,41,25.60
2014,02,16,14,42,24.10
2014,02,16,14,43,21.00
2014,02,16,14,44,18.40
2014,02,16,14,45,16.80
2014,02,16,14,46,16.00
2014,02,16,14,47,14.50
2014,02,16,14,48,14.00
2014,02,16,14,49,14.00
2014,02,16,14,50,14.00
2014,02,16,14,51,12.40
2014,02,16,14,52,16.00
2014,02,16,14,53,15.60
2014,02,16,14,54,13.50
2014,02,16,14,55,12.60
2014,02,16,14,56,14.80
2014,02,16,14,57,15.10
2014,02,16,14,58,12.50
2014,02,16,14,59,11.00
2014,02,16,15,00,11.00
2014,02,16,15,01,8.30
2014,02,16,15,02,5.50
2014,02,16,15,03,6.60
2014,02,16,15,04,7.00
2014,02,16,15,05,8.90
2014,02,16,15,06,12.10
2014,02,16,15,07,14.00
2014,02,16,15,08,14.00
2014,02,16,15,09,14.00
2014,02,16,15,10,14.00
2014,02,16,15,11,14.00
2014,02,16,15,12,15.70
2014,02,16,15,13,18.50
2014,02,16,15,14,19.00
2014,02,16,15,15,19.00
2014,02,16,15,16,14.20
2014,02,16,15,17,11.20
2014,02,16,15,18,11.00
2014,02,16,15,19,15.50
2014,02,16,15,20,22.70
2014,02,16,15,21,28.30
2014,02,16,15,22,35.70
2014,02,16,15,23,40.80
2014,02,16,15,24,44.00
2014,02,16,15,25,44.00
2014,02,16,15,26,44.80
2014,02,16,15,27,48.30
2014,02,16,15,28,52.60
2014,02,16,15,29,53.40
2014,02,16,15,30,49.30
2014,02,16,15,31,43.60
2014,02,16,15,32,38.20
2014,02,16,15,33,33.70
2014,02,16,15,34,32.10
2014,02,16,15,35,33.00
2014,02,16,15,36,37.30
2014,02,16,15,37,40.00
2014,02,16,15,38,39.40
2014,02,16,15,39,36.00
2014,02,16,15,40,31.40
2014,02,16,15,41,27.20
2014,02,16,15,42,25.50
2014,02,16,15,43,25.00
2014,02,16,15,44,25.00
2014,02,16,15,45,25.00
2014,02,16,15,46,25.70
2014,02,16,15,47,26.00
2014,02,16,15,48,27.60
2014,02,16,15,49,31.50
2014,02,16,15,50,38.70
2014,02,16,15,51,50.30
2014,02,16,15,52,65.00
2014,02,16,15,53,78.70
2014,02,16,15,54,87.20
2014,02,16,15,55,91.00
2014,02,16,15,56,85.70
2014,02,16,15,57,66.50
2014,02,16,15,58,45.10
2014,02,16,15,59,31.90
2014,02,16,16,00,28.00
2014,02,16,16,01,31.60
2014,02,16,16,02,36.00
2014,02,16,16,03,38.60
2014,02,16,16,04,37.30
2014,02,16,16,05,32.20
2014,02,16,16,06,25.90
2014,02,16,16,07,24.70
2014,02,16,16,08,22.60
2014,02,16,16,09,20.50
2014,02,16,16,10,18.70
2014,02,16,16,11,18.00
2014,02,16,16,12,18.50
2014,02,16,16,13,21.10
2014,02,16,16,14,24.70
2014,02,16,16,15,27.20
2014,02,16,16,16,29.40
2014,02,16,16,17,28.50
2014,02,16,16,18,26.40
2014,02,16,16,19,23.30
2014,02,16,16,20,23.00
2014,02,16,16,21,23.00
2014,02,16,16,22,23.00
2014,02,16,16,23,23.40
2014,02,16,16,24,26.40
2014,02,16,16,25,33.00
2014,02,16,16,26,40.90
2014,02,16,16,27,44.90
2014,02,16,16,28,43.90
2014,02,16,16,29,39.10
2014,02,16,16,30,34.50
2014,02,16,16,31,29.60
2014,02,16,16,32,21.10
2014,02,16,16,33,13.30
2014,02,16,16,34,9.30
2014,02,16,16,35,9.00
2014,02,16,16,36,9.00
2014,02,16,16,37,9.00
2014,02,16,16,38,9.00
2014,02,16,16,39,9.00
2014,02,16,16,40,8.30
2014,02,16,16,41,7.00
2014,02,16,16,42,7.00
2014,02,16,16,43,7.00
2014,02,16,16,44,7.00
2014,02,16,16,45,8.20
2014,02,16,16,46,10.40
2014,02,16,16,47,11.80
2014,02,16,16,48,13.60
2014,02,16,16,49,14.00
2014,02,16,16,50,11.10
2014,02,16,16,51,9.00
2014,02,16,16,52,9.00
2014,02,16,16,53,9.00
2014,02,16,16,54,9.50
2014,02,16,16,55,11.00
2014,02,16,16,56,11.40
2014,02,16,16,57,12.90
2014,02,16,16,58,16.10
2014,02,16,16,59,18.60
2014,02,16,17,00,17.10
2014,02,16,17,01,13.30
2014,02,16,17,02,11.20
2014,02,16,17,03,9.40
2014,02,16,17,04,10.80
2014,02,16,17,05,12.00
2014,02,16,17,06,14.40
2014,02,16,17,07,18.40
2014,02,16,17,08,20.60
2014,02,16,17,09,18.70
2014,02,16,17,10,16.70
2014,02,16,17,11,13.20
2014,02,16,17,12,10.60
2014,02,16,17,13,8.00
2014,02,16,17,14,5.90
2014,02,16,17,15,1.80
2014,02,16,17,16,0.00
2014,02,16,17,17,0.00
2014,02,16,17,18,0.00
2014,02,16,17,19,0.00
2014,02,16,17,20,0.00
2014,02,16,17,21,0.00
2014,02,16,17,22,0.00
2014,02,16,17,23,0.00
2014,02,16,17,24,0.00
2014,02,16,17,25,0.00
2014,02,16,17,26,0.00
2014,02,16,17,27,0.00
2014,02,16,17,28,0.00
2014,02,16,17,29,0.00
2014,02,16,17,30,0.00
2014,02,16,17,31,0.00
2014,02,16,17,32,0.00
2014,02,16,17,33,0.00
2014,02,16,17,34,0.00
2014,02,16,17,35,0.00
2014,02,16,17,36,0.00
2014,02,16,17,37,0.00
2014,02,16,17,38,0.00
2014,02,16,17,39,0.00
2014,02,16,17,40,0.00